COSMOS 2436 (723)

Last updated on Tue Dec 09 2025 00:03:22 GMT+0000 (Coordinated Universal Time)

1 32395U 07065C 25342.08416236 .00000051 00000+0 00000+0 0 9990 2 32395 64.3236 198.4308 0017747 9.2257 134.6131 2.13100022139656
UTC large
Height (km)
Speed (km/s)
/
Latitude / Longitude
Inclination (degrees)
Orbital Period (minutes)
Azimuth
Elevation
Range (km)
Doppler Factor

Next 0 passes for location: London (51.5072 / 0.1276)

Sorry there are no passes over London.